Погода в Давиде

Панама     8˚25′00″N   82˚25′24″W
темп.,
°C
ветер,
м/с
пор.,
м/с
влажн.,
%
обл.,
%
осадки,
мм/ч
давл.,
гПа
погр.,
м
5 декабря, сб
сб501:00+21˚с228384 0.1 101325
04:00+20˚с238040 0.0 101228
07:00+20˚с227834 0.0 101327
10:00+27˚ююз216321 0.0 1015392
13:00+28˚юз326411 0.0 1012777
16:00+27˚ююз33740 0.0 1011591
19:00+23˚зсз119217 0.2 101223
22:00+22˚с11908 0.1 101424
6 декабря, вс
вс601:00+22˚с12856 0.1 101324
04:00+21˚с127724 0.0 101124
07:00+21˚с227213 0.0 101224
10:00+26˚ююв11670 0.0 1014323
13:00+29˚ююз326319 0.0 10111051
16:00+27˚ююз437911 0.6 1009617
19:00+23˚з009413 1.8 101123
22:00+22˚с119138 0.2 101323
7 декабря, пн
пн701:00+22˚с118826 0.2 101224
04:00+21˚с12869 0.0 101023
07:00+21˚с12824 0.0 101224
10:00+26˚ююз21730 0.0 1013399
13:00+29˚ююз32651 0.0 10111029
16:00+27˚юз448011 1.1 1009612
19:00+23˚ююв009323 2.3 101124
22:00+22˚с11898 0.1 101324
8 декабря, вт
вт801:00+22˚с11854 0.1 101224
04:00+21˚с12840 0.0 101124
07:00+22˚с118417 0.0 101324
10:00+27˚ю217411 0.0 1014469
13:00+29˚ююз32697 0.3 10121000
16:00+26˚юз338238 2.9 1010557
19:00+23˚зюз119231 5.1 101225
22:00+22˚с11894 0.0 101525
9 декабря, ср
ср901:00+22˚с11872 0.0 101324
04:00+21˚ссз11860 0.0 101224
07:00+22˚ссв118513 0.0 101426
10:00+27˚ю21680 0.0 1016610
13:00+29˚ююз42680 0.4 1014915
16:00+27˚ююз337921 2.8 1012529
19:00+23˚з019115 4.3 101329
22:00+22˚всв118939 0.1 101526